FW6687 Weather Reports


Display with metric or nautical units.
time (UTC)temp
F
wind
direction
speed
MPH
gust
MPH
rain 1hr
in
rain 24hr
in
rain mn
in
humidity
%
barometer
mb
20260510194531 0 0.0 0.0 0.00 0.00 0.00 1011.4
20260510193030 0 0.0 0.0 0.00 0.00 0.00 1011.2
20260510191528 0 0.0 0.0 0.00 0.00 0.00 1011.1
20260510190030 0 0.0 0.0 0.00 0.00 0.00 1011.0
20260510184530 0 0.0 0.0 0.00 0.00 0.00 1010.9
20260510183034 74 9.0 20.0 0.00 0.00 0.00 50 1010.9
20260510181529 75 248 10.0 24.0 0.00 0.00 0.00 49 1010.8
20260510180031 75 177 6.0 18.0 0.00 0.00 0.00 48 1010.7
20260510174528 76 138 9.0 17.0 0.00 0.00 0.00 47 1010.6
20260510173027 76 163 6.0 20.0 0.00 0.00 0.00 48 1010.4
20260510171530 77 224 8.0 19.0 0.00 0.00 0.00 47 1010.4
20260510170029 78 158 12.0 19.0 0.00 0.00 0.00 46 1010.5
20260510164537 78 216 8.0 21.0 0.00 0.00 0.00 46 1010.3
20260510163028 79 99 2.0 17.0 0.00 0.00 0.00 45 1010.4
20260510161527 79 136 6.0 15.0 0.00 0.00 0.00 44 1010.4
20260510160028 78 152 6.0 24.0 0.00 0.00 0.00 44 1010.4
20260510154532 79 89 2.0 15.0 0.00 0.00 0.00 45 1010.4
20260510153030 79 241 7.0 19.0 0.00 0.00 0.00 44 1010.6
20260510151533 79 158 7.0 17.0 0.00 0.00 0.00 45 1010.9
20260510150031 79 125 6.0 16.0 0.00 0.00 0.00 46 1010.9
20260510144547 79 166 8.0 21.0 0.00 0.00 0.00 44 1010.9
20260510143030 79 108 7.0 16.0 0.00 0.00 0.00 44 1011.0
20260510141531 80 82 5.0 17.0 0.00 0.00 0.00 44 1011.1
20260510140030 79 316 4.0 12.0 0.00 0.00 0.00 45 1011.3
20260510134530 79 33 3.0 14.0 0.00 0.00 0.00 44 1011.5
20260510133028 78 163 4.0 11.0 0.00 0.00 0.00 47 1011.8
20260510131529 77 273 9.0 25.0 0.00 0.00 0.00 52 1011.7
20260510130029 77 115 8.0 17.0 0.00 0.00 0.00 50 1011.8
20260510124531 75 128 7.0 15.0 0.00 0.00 0.00 65 1012.0
20260510123030 74 115 5.0 12.0 0.00 0.00 0.00 67 1012.7
20260510121529 73 63 2.0 10.0 0.00 0.00 0.00 68 1013.1
20260510120037 72 49 5.0 10.0 0.00 0.00 0.00 72 1013.2
20260510114527 72 76 4.0 12.0 0.00 0.00 0.00 68 1013.4
20260510113030 73 117 5.0 12.0 0.00 0.00 0.00 64 1013.5
20260510111527 75 123 6.0 12.0 0.00 0.00 0.00 62 1013.7
20260510110031 76 115 4.0 7.0 0.00 0.00 0.00 58 1013.8
20260510104529 75 73 1.0 8.0 0.00 0.00 0.00 59 1014.0
20260510103027 74 120 2.0 7.0 0.00 0.00 0.00 60 1014.1
20260510101528 73 103 3.0 7.0 0.00 0.00 0.00 60 1014.2
20260510100105 72 114 3.0 8.0 0.00 0.00 0.00 62 1014.2
20260510094537 72 160 2.0 6.0 0.00 0.00 0.00 63 1014.3
20260510093030 71 96 1.0 7.0 0.00 0.00 0.00 66 1014.6
20260510091529 71 159 3.0 5.0 0.00 0.00 0.00 67 1014.6
20260510090028 70 120 1.0 6.0 0.00 0.00 0.00 69 1014.6
20260510084530 70 102 0.0 3.0 0.00 0.00 0.00 69 1015.0
20260510083030 67 104 1.0 4.0 0.00 0.00 0.00 73 1014.9
20260510081530 66 112 1.0 3.0 0.00 0.00 0.00 77 1014.7
20260510080032 66 116 3.0 5.0 0.00 0.00 0.00 77 1015.0
20260510074534 0 0.0 0.0 0.00 0.00 0.00 1015.1
20260510073028 0 0.0 0.0 0.00 0.00 0.00 1015.2
20260510071530 0 0.0 0.0 0.00 0.00 0.00 1015.2
20260510070028 0 0.0 0.0 0.00 0.00 0.00 1014.9
20260510064531 0 0.0 0.0 0.00 0.00 0.00 1015.1
20260510063029 0 0.0 0.0 0.00 0.00 0.00 1014.7
20260510061536 0 0.0 0.0 0.00 0.00 0.00 1015.0
20260510060044 0 0.0 0.0 0.00 0.00 0.00 1014.6
20260510054530 0 0.0 0.0 0.00 0.00 0.00 1014.4
20260510053032 0 0.0 0.0 0.00 0.00 0.00 1014.4
20260510051530 0 0.0 0.0 0.00 0.00 0.00 1014.4
20260510050029 0 0.0 0.0 0.00 0.00 0.00 1014.4
20260510044527 0 0.0 0.0 0.00 0.00 0.00 1014.4
20260510043030 0 0.0 0.0 0.00 0.00 0.00 1014.4
20260510041531 0 0.0 0.0 0.00 0.00 0.00 1014.3
20260510040030 0 0.0 0.0 0.00 0.00 0.00 1014.2
20260510034530 0 0.0 0.0 0.00 0.00 0.00 1014.2
20260510033028 0 0.0 0.0 0.00 0.00 0.00 1014.0
20260510031538 0 0.0 0.0 0.00 0.00 0.00 1013.9
20260510030030 0 0.0 0.0 0.00 0.00 0.00 1013.9
20260510024535 0 0.0 0.0 0.00 0.00 0.00 1013.9
20260510023042 0 0.0 0.0 0.00 0.00 0.00 1013.8
20260510021530 0 0.0 0.0 0.00 0.00 0.00 1013.8
20260510020028 0 0.0 0.0 0.00 0.00 0.00 1013.8
20260510014532 0 0.0 0.0 0.00 0.00 0.00 1013.7
20260510013027 0 0.0 0.0 0.00 0.00 0.00 1013.7
20260510011530 0 0.0 0.0 0.00 0.00 0.00 1013.8
20260510010032 0 0.0 0.0 0.00 0.00 0.00 1013.9
20260510004532 0 0.0 0.0 0.00 0.00 0.00 1014.1
20260510003028 0 0.0 0.0 0.00 0.00 0.00 1014.2
20260510001530 0 0.0 0.0 0.00 0.00 0.00 1014.2
20260510000029 0 0.0 0.0 0.00 0.00 0.00 1014.2
20260509234527 0 0.0 0.0 0.00 0.00 0.00 1014.5
20260509233031 0 0.0 0.0 0.00 0.00 0.00 1014.6
20260509231530 0 0.0 0.0 0.00 0.00 0.00 1014.6
20260509230030 0 0.0 0.0 0.00 0.00 0.00 1014.6
20260509224528 0 0.0 0.0 0.00 0.00 0.00 1014.7
20260509223029 0 0.0 0.0 0.00 0.00 0.00 1014.7
20260509221532 0 0.0 0.0 0.00 0.00 0.00 1014.6
20260509220030 0 0.0 0.0 0.00 0.00 0.00 1014.5
20260509214530 0 0.0 0.0 0.00 0.00 0.00 1014.5
20260509213028 0 0.0 0.0 0.00 0.00 0.00 1014.3
20260509211549 0 0.0 0.0 0.00 0.00 0.00 1014.3
20260509210028 0 0.0 0.0 0.00 0.00 0.00 1014.1
20260509204528 63 2.0 2.0 0.00 0.00 0.00 76 1013.9
20260509203039 63 116 3.0 5.0 0.00 0.00 0.00 76 1013.9
20260509201528 64 110 3.0 5.0 0.00 0.00 0.00 74 1013.8
20260509200031 65 105 3.0 6.0 0.00 0.00 0.00 71 1013.7